Regional Weather Roundup
Issued by NWS

Home | Current Version | Previous Version | Graphics & Text | Print | Product List | Glossary On
Versions: 1 2 3 4 5 6 7 8 9 10 11 12 13 14 15 16 17 18 19 20 21 22 23 24 25 26 27 28 29 30 31 32 33 34 35 36 37 38 39 40 41 42 43 44 45 46 47 48 49 50
000
ASUS45 KBOU 181407
RWRCO

WEATHER ROUNDUP FOR COLORADO
NATIONAL WEATHER SERVICE DENVER/BOULDER CO
800 AM MDT SAT APR 18 2015

NOTE: "FAIR" INDICATES FEW OR NO CLOUDS BELOW 12000 FEET WITH NO
SIGNIFICANT WEATHER AND/OR OBSTRUCTIONS TO VISIBILITY.

COZ001>005-013-030-031-181500-
...NORTHWEST COLORADO...

CITY           SKY/WX    TMP DP  RH WIND       PRES   REMARKS
CRAIG          CLOUDY    35  30  82 W10       30.00S WCI  27
HAYDEN         CLOUDY    32  28  86 W9        29.99S WCI  24
MEEKER         LGT SNOW  36  31  82 MISG      30.00S
MOUNT WERNER   NOT AVBL
STEAMBOAT SPGS CLOUDY    31  30  96 SW6       29.97S WCI  25
WALDEN         CLOUDY    28  27  93 N6        29.97S VSB 1   WCI  22
$$

COZ006>008-011-181500-
...WEST CENTRAL VALLEYS...

CITY           SKY/WX    TMP DP  RH WIND       PRES   REMARKS
GRAND JUNCTION FOG       34  34 100 E3        30.04S VSB 1/4
MONTROSE       CLOUDY    34  31  88 E3        30.07S
EAGLE          LGT SNOW  30  28  93 CALM      30.04S FOG
RIFLE          LGT SNOW  34  31  88 CALM      30.02F FOG
DELTA          CLOUDY    37  35  94 CALM      30.08R
NUCLA          PTSUNNY   34  32  93 E6        30.08F WCI  29
$$

COZ017>023-064>068-181500-
...SOUTHWEST COLORADO...

CITY           SKY/WX    TMP DP  RH WIND       PRES   REMARKS
DURANGO        CLOUDY    30  28  92 CALM      30.02S
CORTEZ         SUNNY     30  29  96 SW3       30.04R
PAGOSA SPRINGS CLOUDY    27  17  64 CALM      30.03S
TELLURIDE      PTSUNNY   24  21  90 CALM      30.04F
WOLF CREEK PAS MOSUNNY   14   9  79 W3        30.03R
$$

COZ009-010-012-014-032>034-037-058>063-181500-
...CENTRAL COLORADO...

CITY           SKY/WX    TMP DP  RH WIND       PRES   REMARKS
ASPEN          LGT SNOW  24  22  91 CALM      29.99F VSB 1
BUENA VISTA    CLOUDY    20  16  81 CALM      29.99S
COPPER MTN     CLOUDY    19  14  79 W12       29.96S WCI   7
BERTHOUD PASS  SNOW      12   5  73 MISG      29.97S VSB<1/4
COTTONWOOD PAS CLOUDY    27  19  74 CALM      29.96S
GUNNISON       CLOUDY    23  18  80 NE6       30.07R WCI  16
KREMMLING      SNOW      30  28  93 S5        30.00R VSB 1/2 WCI  25
LEADVILLE      LGT SNOW  19  16  88 N7        29.96S VSB 3/4 WCI  10
MONARCH PASS   CLOUDY    12   9  85 MISG      30.05F
SALIDA         CLOUDY    24  18  78 W3        30.07S
SUNLIGHT       SNOW     N/A N/A N/A CALM      30.02F VSB 1/4
WILKERSON PASS LGT SNOW  19  16  86 SW7       29.96F VSB 1   WCI  10
$$

COZ069>075-181500-
...SAN LUIS VALLEY/SANGRE DE CRISTO MOUNTAINS...

CITY           SKY/WX    TMP DP  RH WIND       PRES   REMARKS
ALAMOSA        SUNNY     29  22  75 N9        30.00R WCI  20
LA VETA PASS   MOSUNNY   21  14  73 S7        29.95S WCI  13
SAGUACHE       PTSUNNY   28  18  64 NW13      30.01S WCI  18
$$

COZ035-036-038>040-181500-
...NORTHERN COLORADO FRONT RANGE...

CITY           SKY/WX    TMP DP  RH WIND       PRES   REMARKS
DENVER INTL AP CLOUDY    39  36  89 CALM      29.95S
DMNS CITY PARK   N/A     40  34  77 W6        29.96S
AURORA         NOT AVBL
FRONT RANGE AP CLOUDY    39  37  93 SW5       29.96
ERIE MUNI ARPT MIX PCPN  41  37  84 CALM      29.96S
BOULDER MUN AP LGT RAIN  41  37  87 CALM      29.95S
CENTENNIAL     CLOUDY    37  35  92 W5        29.95R
BROOMFIELD     CLOUDY    39  36  87 CALM      29.96S
FORT COLLINS   CLOUDY    39  36  87 CALM      29.97S
LONGMONT       DRIZZLE   43  37  80 CALM      29.97F
$$

COZ041-046-047-076>085-087-088-181500-
...PIKES PEAK/PALMER DIVIDE AND SOUTHERN FOOTHILLS...

CITY           SKY/WX    TMP DP  RH WIND       PRES   REMARKS
COLO. SPRINGS  PTSUNNY   35  30  82 CALM      29.95R
A. F. ACADEMY  NOT AVBL
ELLICOTT       LGT SNOW N/A N/A N/A N8        29.94R
FALCON         MOSUNNY   32  30  93 N9        29.94S WCI  24
FORT CARSON    CLOUDY    38  33  81 NW8       29.93F
LIMON          CLOUDY    37  36  96 NW8       29.94R THUNDER
MONUMENT HILL  CLOUDY    30  30 100 W3        29.94S
TRINIDAD       SUNNY     37  26  64 SW13      29.94F
$$

COZ042>045-048>051-090-091-181500-
...NORTHEAST COLORADO...

CITY           SKY/WX    TMP DP  RH WIND       PRES   REMARKS
GREELEY ARPT   CLOUDY    39  34  81 NW5       29.96F
AKRON          CLOUDY    38  38 100 NW9       29.93R FOG
BURLINGTON     CLOUDY    44  42  93 N9        29.92R FOG
WRAY           CLOUDY   N/A N/A N/A NE3       29.94R
STERLING       MOSUNNY   45  41  87 N8        29.91S
HOLYOKE        CLOUDY    46  43  87 N5        29.94R
FORT MORGAN    CLOUDY    40  37  90 NW14      29.94F
$$

COZ086-089-092>099-181500-
...SOUTHEAST COLORADO...

CITY           SKY/WX    TMP DP  RH WIND       PRES   REMARKS
PUEBLO         MOSUNNY   41  32  70 W8        29.94S
LA JUNTA       SUNNY     43  36  76 W15       29.92S
LAMAR          SUNNY     46  41  82 NW9       29.90S
SPRINGFIELD      N/A     44  37  76 NW14      29.90S
$$


USA.gov is the U.S. government's official web portal to all federal, state and local government web resources and services.